Tracking 35237 objects as of 6-Sep-2026
HD Live streaming from Space Station
objects crossing your sky now

IRIDIUM 33 DEB


IRIDIUM 33 DEB is no longer on orbit


NORAD ID: 36642
Int'l Code: 1997-051XC
Launch date: September 14, 1997
Source: United States (US)
Launch site: TYURATAM MISSILE AND SPACE COMPLEX (TTMTR)
Decay date: 2023-04-01

Note: This is SATELLITE DEBRIS
Your satellite tracking list
Your tracking list is empty




NASA's NSSDC Master Catalog

Two Line Element Set (TLE):
1 36642U 97051XC  23058.29086060  .00329578  00000-0  26498-1 0  9996
2 36642  86.3566  60.4674 0015900  84.3380 275.9663 14.98183979578901
Source of the keplerian elements: AFSPC